sat.trackr.live / text

‹ back to catalog

STARLINK-5590

NORAD 55371 · 2023-013AS

PAYLOAD ACTIVE UNKNOWN

§ Identity

Operator
Country
US
Launch date
2023-01-26
Launch site
AFETR
Launch vehicle
Mass (kg)
RCS (m²)

Purposes: comms

External: N2YO · Heavens-Above · Gunter

§ Orbital elements

Epoch: 2026-09-20T09:20:07.524672Z

Period
94.27 min
Inclination
43.0011°
Eccentricity
0.0001547
Mean motion
15.27576212 rev/d
Perigee alt
482.0 km
Apogee alt
484.1 km
Semi-major
6,861.2 km
B*
1.3221e-5
RAAN
301.6584°
Arg perigee
274.7649°
Mean anomaly
85.3026°
Rev number
20,216

§ Raw data

STARLINK-55901 55371U 23013AS  26263.38897598  .00000102  00000+0  13221-4 0  99912 55371  43.0011 301.6584 0001547 274.7649  85.3026 15.27576212202168

JSON: /api/v1/satellites/55371 · /tle

For live sub-satellite position, see the globe view (requires WebGL).

§ Visibility from observer

Set your observer location to see the next 7 days of passes ≥ 10°. The values pass through the URL so the page stays shareable.

No JS? Fill the form by hand. The geolocation button needs JavaScript.